Clarksburg, WV

6:33 AM EDT on June 28, 2017 (GMT -0400)
Benedum

Weather History for KCKB - June, 2013

Change the Weather History Date:

Sunday, June 2, 2013

  Actual Average Record
Temperature  
Mean Temperature 70 °F -  
Max Temperature 75 °F 78 °F 93 °F (1951)
Min Temperature 63 °F 53 °F 34 °F (1966)
Cooling Degree Days 4    
Growing Degree Days 20 (Base 50)    
Moisture  
Dew Point 62 °F    
Average Humidity 76    
Maximum Humidity 94    
Minimum Humidity 57    
Precipitation  
Precipitation 0.22 in - - ()
Sea Level Pressure  
Sea Level Pressure 29.88 in    
Wind  
Wind Speed 10 mph (SSW)    
Max Wind Speed 20 mph    
Max Gust Speed 29 mph    
Visibility 9 miles    
Events Rain , Thunderstorm    
Averages and records for this station are not official NWS values.
T = Trace of Precipitation, MM = Missing Value Source: NWS Daily Summary

Daily Weather History Graph

Daily Weather History Graph

Search for Another Location

Airport or City:

Trip Planner

Search our weather history database for the weather conditions in past years. The results will help you decide how hot, cold, wet, or windy it might be!

Date:

Astronomy

Jun. 02, 2013 Rise Set
Actual Time 5:55 AM EDT 8:42 PM EDT
Civil Twilight 5:24 AM EDT 9:14 PM EDT
Nautical Twilight 4:44 AM EDT 9:54 PM EDT
Astronomical Twilight 3:59 AM EDT 10:39 PM EDT
Moon 2:19 AM EDT (6/2) 3:13 PM EDT (6/2)
Length of Visible Light 15h 50m
Length of Day
14h 46m
Waning Crescent, 31% of the Moon is Illuminated
Jun 2
Waning Crescent
Jun 8
New
Jun 16
First Quarter
Jun 23
Full
Jun 30
Last Quarter

Hourly Weather History & Observations

Time (EDT) Temp. Dew Point Humidity Pressure Visibility Wind Dir Wind Speed Gust Speed Precip Events Conditions
12:53 AM 75.0 °F 60.1 °F 60% 29.82 in 10.0 mi South 9.2 mph - N/A   Clear
1:53 AM 73.9 °F 60.1 °F 62% 29.83 in 10.0 mi SSW 6.9 mph - N/A   Scattered Clouds
2:53 AM 73.9 °F 59.0 °F 59% 29.82 in 10.0 mi SSW 9.2 mph - N/A   Scattered Clouds
3:53 AM 73.9 °F 59.0 °F 59% 29.81 in 10.0 mi South 8.1 mph - N/A   Scattered Clouds
4:53 AM 73.9 °F 57.9 °F 57% 29.81 in 10.0 mi SSW 9.2 mph - N/A   Mostly Cloudy
5:53 AM 73.9 °F 57.9 °F 57% 29.81 in 10.0 mi SSW 8.1 mph - N/A   Mostly Cloudy
6:53 AM 73.9 °F 59.0 °F 59% 29.84 in 10.0 mi West 12.7 mph 19.6 mph 0.00 in   Overcast
7:47 AM 69.8 °F 62.6 °F 78% 29.92 in 1.8 mi WSW 19.6 mph 28.8 mph 0.05 in Rain Rain
7:53 AM 68.0 °F 64.0 °F 87% 29.88 in 0.8 mi WSW 15.0 mph 28.8 mph 0.16 in Rain Heavy Rain
8:00 AM 66.2 °F 64.4 °F 94% 29.92 in 1.8 mi SW 10.4 mph 19.6 mph 0.01 in Rain , Thunderstorm Thunderstorms and Rain
8:03 AM 66.2 °F 64.4 °F 94% 29.92 in 2.5 mi SW 10.4 mph - 0.02 in Rain , Thunderstorm Thunderstorms and Rain
8:29 AM 66.2 °F 64.4 °F 94% 29.92 in 10.0 mi SSW 6.9 mph - 0.06 in Rain Light Rain
8:53 AM 68.0 °F 64.9 °F 90% 29.88 in 10.0 mi SSW 8.1 mph - 0.06 in Rain Light Rain
9:53 AM 70.0 °F 64.0 °F 81% 29.89 in 10.0 mi SSW 11.5 mph - N/A   Overcast
10:08 AM 71.6 °F 64.4 °F 78% 29.93 in 10.0 mi SW 9.2 mph - N/A   Overcast
10:53 AM 71.1 °F 64.0 °F 78% 29.90 in 10.0 mi SW 6.9 mph - N/A   Overcast
11:50 AM 73.4 °F 64.4 °F 73% 29.94 in 10.0 mi SSW 11.5 mph - N/A   Mostly Cloudy
11:53 AM 73.0 °F 64.0 °F 73% 29.89 in 10.0 mi SW 13.8 mph 19.6 mph N/A   Mostly Cloudy
12:53 PM 73.0 °F 64.0 °F 73% 29.89 in 10.0 mi SSW 16.1 mph - N/A   Mostly Cloudy
1:00 PM 73.4 °F 64.4 °F 73% 29.94 in 10.0 mi SSW 15.0 mph - N/A   Mostly Cloudy
1:53 PM 75.0 °F 64.0 °F 69% 29.89 in 10.0 mi SSW 12.7 mph - N/A   Mostly Cloudy
2:53 PM 73.9 °F 62.1 °F 66% 29.88 in 10.0 mi SW 9.2 mph 19.6 mph N/A   Scattered Clouds
3:53 PM 73.9 °F 63.0 °F 68% 29.88 in 10.0 mi SSW 13.8 mph - 0.00 in   Overcast
4:53 PM 72.0 °F 63.0 °F 73% 29.86 in 10.0 mi SSW 6.9 mph - N/A   Overcast
5:53 PM 70.0 °F 61.0 °F 73% 29.83 in 10.0 mi SSW 4.6 mph - 0.00 in Rain Light Rain
6:53 PM 69.1 °F 62.1 °F 78% 29.85 in 10.0 mi SSW 11.5 mph - 0.00 in   Mostly Cloudy
7:53 PM 68.0 °F 62.1 °F 81% 29.87 in 10.0 mi SSW 5.8 mph - N/A   Scattered Clouds
8:53 PM 66.9 °F 62.1 °F 84% 29.88 in 10.0 mi South 4.6 mph - N/A   Partly Cloudy
9:53 PM 66.0 °F 62.1 °F 87% 29.88 in 10.0 mi Calm Calm - N/A   Clear
10:53 PM 64.0 °F 61.0 °F 90% 29.89 in 10.0 mi South 3.5 mph - N/A   Clear
11:53 PM 63.0 °F 61.0 °F 93% 29.88 in 10.0 mi Calm Calm - N/A   Clear